Regional Weather Roundup
Issued by NWS

Home | Current Version | Previous Version | Graphics & Text | Print | Product List | Glossary On
Versions: 1 2 3 4 5 6 7 8 9 10 11 12 13 14 15 16 17 18 19 20 21 22 23 24 25 26 27 28 29 30 31 32 33 34 35 36 37 38 39 40 41 42 43 44 45 46 47 48 49 50
000
ASUS44 KMEG 011100
RWRTN
TENNESSEE HOURLY STATE WEATHER ROUNDUP
NATIONAL WEATHER SERVICE MEMPHIS TN
600 AM CDT SAT AUG 01 2015

TNZ002-004-019-021-049-052-054-088>092-011200-
WEST TENNESSEE

CITY           SKY/WX    TMP DP  RH WIND       PRES   REMARKS
MEMPHIS INTL   MOCLDY    76  66  71 CALM      30.03R
NWS MEMPHIS      N/A     67 N/A N/A MISG        N/A
JACKSON        CLEAR     64  62  93 CALM      30.03R
DYERSBURG        N/A    N/A N/A N/A MISG        N/A
PARIS          CLEAR     63  61  94 CALM      30.03R
LEXINGTON      CLEAR     63  63 100 CALM      30.02R
$$

TNZ008-025-027-028-033-062-065-066-011200-
NORTH MIDDLE TENNESSEE

CITY           SKY/WX    TMP DP  RH WIND       PRES   REMARKS
NASHVILLE      PTCLDY    66  64  93 CALM      30.02R
CLARKSVILLE    CLEAR     66  65  96 CALM      30.02R
CROSSVILLE     CLEAR     61  57  87 CALM      30.08R
$$

TNZ061-075-076-078-094-096-097-011200-
SOUTH MIDDLE TENNESSEE

CITY           SKY/WX    TMP DP  RH WIND       PRES   REMARKS
FAYETTEVILLE   CLEAR     63  59  88 NE5       30.03R
TULLAHOMA      CLEAR     61  57  88 CALM      30.05R
WINCHESTER     CLEAR     57  57 100 CALM      30.04R
MCMINNVILLE    CLEAR     61  61 100 CALM      30.05R
COLUMBIA       CLEAR     63  63 100 CALM      30.02R
SHELBYVILLE    CLEAR     61  61 100 CALM      30.04R
$$

TNZ017-018-042-046-047-011200-
NORTHEAST TENNESSEE

CITY           SKY/WX    TMP DP  RH WIND       PRES   REMARKS
TRI CITIES     PTCLDY    58  57  97 CALM      30.05S
ELIZABETHTON   SUNNY     57  55  94 NE5       30.07R
$$

TNZ012-013-036-069-073-074-011200-
CENTRAL EAST TENNESSEE

CITY           SKY/WX    TMP DP  RH WIND       PRES   REMARKS
KNOXVILLE      PTCLDY    62  60  93 NE5       30.02R
OAK RIDGE      CLEAR     63  60  90 CALM      30.04R
GATLINBURG     SUNNY     59  57  94 CALM      30.03S
$$

TNZ083-085-099-011200-
SOUTHEAST TENNESSEE

CITY           SKY/WX    TMP DP  RH WIND       PRES   REMARKS
CHATTANOOGA    PTCLDY    65  61  87 NW3       30.01R
$$

SKY/WX REPORTED AS FAIR MEANS FEW OR NO CLOUDS BELOW
12 THOUSAND FEET.




USA.gov is the U.S. government's official web portal to all federal, state and local government web resources and services.